Location: Maccacari
(45.1333°N, 11.1333°E)
Time: 14:26:56
(UTC+00:00)

S-56A Canister/Altair - Pass Details

Date: 26 January 2021
Orbit: 631 x 2501 km, 38.9° (Epoch: 01 March)

Event Time Altitude Azimuth Distance (km) Brightness Sun altitude
Rises 01:58:41 0° 244° (WSW) 3,077 - -49.1°
Reaches altitude 10° 02:01:17 10° 235° (SW) 2,060 - -48.7°
Maximum altitude 02:05:22 34° 169° (S) 1,041 - -48.1°
Drops below altitude 10° 02:09:29 10° 104° (ESE) 2,076 - -47.4°
Exits shadow 02:11:34 - 97° (E) 2,882 11.0 -47.1°
Sets 02:12:07 0° 95° (E) 3,103 11.2 -47.0°
